Probability
18 18 18 16 14 13 13 12 10 7 5 5 7 7 8 8 6 6 6 4 1 0 0 0 0 0 0 0 0 1 1 1 0 0 0 0 0 0
18 18 18 17 15 14 13 12 11 10 7 7 8 9 8 8 7 6 7 5 2 1 0 0 0 0 0 0 0 0 0 0 0 0 0 0 0 0
18 18 18 17 17 15 12 11 12 14 13 11 10 10 11 11 9 8 8 6 4 3 1 0 0 0 0 0 0 0 0 0 0 0 0 0 0 0
19 19 18 18 17 15 12 10 13 17 17 15 12 12 13 13 11 10 10 9 7 5 3 1 0 0 0 0 0 0 0 0 0 0 0 0 0 0
19 18 17 16 16 15 14 13 14 16 18 18 15 13 12 13 13 12 12 12 10 6 3 1 1 0 0 0 0 0 0 0 0 0 0 0 0 0
16 15 14 13 13 13 14 14 14 15 17 19 18 14 12 14 15 14 14 16 15 10 6 4 3 2 1 0 0 0 0 0 0 0 0 0 0 0
15 14 13 11 10 10 11 11 11 13 16 19 19 17 15 17 18 18 17 18 17 15 12 9 7 4 2 1 0 0 0 0 0 0 0 0 0 0
17 16 14 12 11 9 7 6 6 9 12 17 20 20 18 19 20 19 17 17 17 16 15 14 11 7 4 2 1 0 0 0 0 0 0 0 0 0
20 19 17 14 14 14 10 8 7 8 10 14 18 18 17 20 21 19 16 15 15 15 16 16 12 7 5 4 2 0 0 0 0 0 0 0 0 0
22 21 20 18 18 19 18 16 15 14 11 12 14 14 13 15 18 18 17 15 14 15 15 15 12 8 6 6 3 1 0 0 0 0 0 0 0 0
22 22 20 18 17 17 19 20 21 19 15 12 12 10 7 7 11 16 18 15 14 14 13 13 11 9 8 7 6 3 1 0 0 0 0 0 0 0
20 19 15 12 10 11 14 18 20 20 17 15 13 10 7 7 9 14 17 16 15 14 13 12 12 10 9 9 9 7 5 4 2 1 0 0 0 0
16 15 11 7 4 5 7 12 15 15 16 17 16 14 12 12 13 13 14 15 15 15 14 14 13 12 11 11 11 11 9 9 8 5 2 1 0 0
13 13 10 6 3 2 4 6 7 9 12 15 17 16 14 14 15 14 13 14 16 15 15 15 15 15 13 10 10 10 9 10 11 10 7 5 3 2
11 11 8 5 3 3 3 3 4 7 11 14 15 14 12 12 15 16 15 15 15 13 14 15 16 16 12 8 8 8 8 8 10 11 9 8 7 6
10 9 7 5 5 6 5 5 6 9 13 14 12 12 12 13 15 16 17 16 13 10 11 13 15 13 8 5 6 8 9 9 9 10 10 9 9 9
10 9 8 8 8 8 8 8 10 12 14 13 12 12 13 13 12 14 16 14 10 6 6 9 11 10 6 5 6 8 9 10 11 12 11 8 8 9
8 8 9 9 10 10 10 10 11 13 13 12 11 11 12 11 11 12 13 10 6 4 4 6 8 8 7 6 6 6 7 10 12 13 11 9 9 9
6 6 7 9 10 10 10 10 11 12 13 10 8 9 10 9 10 11 10 7 4 3 3 4 6 7 6 6 5 5 6 8 10 11 11 10 10 9
5 6 7 8 9 10 10 10 11 11 10 9 7 7 8 9 8 8 7 5 4 3 3 4 5 6 6 5 5 5 4 5 7 8 9 10 9 7
7 7 8 8 8 8 9 10 11 10 8 7 7 7 9 9 8 6 5 4 4 3 3 4 5 6 6 6 5 5 4 4 5 6 6 7 7 5
9 9 9 8 8 9 9 9 8 7 6 6 6 7 8 8 7 6 6 6 5 4 4 4 6 7 6 5 4 4 4 5 4 3 3 4 4 3
10 10 9 8 9 11 10 9 7 5 5 6 6 7 7 7 7 6 6 6 6 6 5 5 5 6 6 4 2 3 5 6 4 2 1 1 2 2
Wind_Speed
5 4 4 3 4 4 4 4 6 7 5 3 3 2 2 2 1 4 3 3 5 5 6 6 7 7 7 7 7 7 7 7 8 8 9 9 9 10
4 4 4 4 3 4 4 4 5 6 6 4 3 3 3 4 2 4 4 4 7 7 7 6 6 6 6 7 7 7 8 8 8 9 9 9 9 10
5 4 5 5 4 4 4 4 4 5 7 6 4 3 3 5 4 4 5 5 4 7 6 6 6 7 7 7 7 7 7 8 9 9 10 10 10 10
5 5 5 4 4 5 4 5 4 5 6 7 5 4 5 5 4 6 5 5 5 6 7 7 7 7 7 8 8 8 7 8 8 9 9 9 10 10
5 5 5 4 5 4 5 5 5 5 5 6 5 4 4 4 5 6 6 5 7 4 7 8 8 8 8 8 8 8 8 8 8 9 9 9 9 9
5 5 5 5 5 5 5 5 6 6 5 6 5 5 4 4 5 5 5 4 5 5 4 5 7 10 10 10 9 8 8 8 9 9 9 9 8 8
5 5 5 4 4 5 5 5 6 6 5 5 5 5 4 4 5 5 5 5 5 4 5 5 5 6 7 9 9 7 7 8 8 8 8 8 8 8
6 6 6 5 5 6 7 7 8 7 7 7 6 6 6 6 5 6 6 6 5 3 5 6 5 5 5 4 4 5 6 7 7 8 8 8 9 9
6 5 6 4 4 5 6 8 8 9 9 9 9 8 7 5 5 7 6 7 7 5 6 7 6 6 5 2 5 6 7 7 7 8 8 8 9 9
5 5 6 5 4 6 7 7 7 7 7 8 8 8 7 6 6 7 7 7 8 6 5 7 6 6 5 4 6 7 7 7 8 8 8 8 9 9
5 5 6 6 3 5 7 8 8 7 5 6 7 7 6 6 6 6 6 6 7 5 5 6 6 6 6 5 4 8 8 8 9 9 9 9 9 9
4 4 4 4 4 4 7 8 8 8 7 5 6 7 8 7 8 8 6 7 7 6 3 4 6 5 5 4 4 3 5 7 9 10 10 9 8 7
5 4 2 1 3 5 7 7 7 8 7 7 6 5 5 5 5 6 6 7 7 7 4 4 6 6 6 6 5 5 5 4 5 6 8 9 9 8
6 5 3 2 4 6 6 6 7 7 6 6 5 4 4 4 4 5 6 7 7 8 6 6 6 6 7 7 6 5 5 5 5 5 4 6 8 9
5 4 5 5 6 6 6 7 7 5 5 5 5 5 4 4 4 4 5 5 7 7 6 7 7 6 7 7 7 6 5 5 5 5 4 3 4 4
5 4 6 8 8 6 5 5 5 4 5 5 5 5 5 4 4 4 4 4 5 5 5 6 6 7 7 7 7 6 6 5 5 5 4 4 4 4
5 5 4 4 4 4 4 4 4 3 4 5 5 5 5 4 4 4 4 5 5 5 4 3 4 5 6 7 6 6 6 6 5 4 4 4 4 3
6 5 4 4 5 5 5 4 4 4 4 5 5 5 5 4 5 5 5 5 5 5 4 4 3 4 4 4 5 6 6 5 5 4 5 5 4 3
5 5 4 5 5 5 5 5 5 4 4 5 5 5 5 5 5 5 5 5 5 5 4 4 4 4 6 5 3 4 6 5 5 4 4 4 4 2
5 5 5 5 5 5 5 5 5 5 4 5 5 5 5 5 5 5 5 5 5 5 4 4 4 5 5 6 4 3 5 5 5 4 4 3 1 1
4 4 5 4 5 4 5 5 5 5 5 5 5 5 5 5 5 5 5 5 5 5 5 5 4 5 5 4 4 4 2 2 3 4 4 3 3 3
4 5 5 5 5 4 5 5 5 5 5 5 5 5 5 5 5 6 5 4 4 4 5 4 3 3 4 4 5 4 3 2 1 1 2 3 2 2
4 5 4 5 4 4 4 5 6 5 5 5 5 5 5 5 5 4 4 5 4 4 4 4 4 3 4 4 4 3 3 3 2 1 1 2 3 3
Wind_Direction
270 261 267 276 270 275 274 275 283 290 289 272 269 265 269 275 278 270 267 191 217 233 244 249 253 253 253 250 243 244 243 244 242 240 242 243 243 245
271 281 279 278 277 268 267 269 270 280 289 295 284 292 308 289 255 283 272 210 220 227 236 245 249 249 248 249 240 241 241 239 240 239 241 245 245 244
273 268 269 283 283 279 269 266 265 267 274 282 287 290 285 285 289 282 268 260 230 203 220 235 242 245 247 247 243 241 243 241 240 240 241 243 245 245
271 273 273 271 272 276 280 272 269 268 271 282 283 281 276 272 278 278 276 273 272 194 210 227 237 241 244 246 243 240 241 244 244 243 242 242 243 244
268 270 275 282 280 283 281 280 275 265 264 270 273 281 278 280 277 272 276 278 276 211 206 216 223 232 239 241 240 238 238 243 245 244 244 244 243 244
264 267 272 275 277 280 275 277 280 278 268 267 271 270 270 275 274 276 279 269 278 277 259 243 221 222 229 231 233 236 238 239 241 242 241 240 239 241
262 263 263 268 290 285 290 288 283 276 272 268 268 269 271 280 276 280 282 283 272 274 278 261 239 237 222 218 223 233 236 235 237 239 239 239 238 238
266 267 264 245 247 245 258 270 276 277 283 280 273 274 275 275 281 285 291 288 283 275 282 276 267 262 253 244 200 208 223 229 233 236 239 239 238 237
270 271 273 274 265 275 258 246 249 246 254 272 279 280 280 279 285 282 282 284 284 288 280 277 270 267 262 232 179 204 219 226 231 236 240 240 240 240
273 273 276 283 285 290 284 277 274 264 248 251 268 275 280 285 273 273 279 274 270 264 267 276 277 276 278 261 187 204 219 229 235 239 241 242 242 242
271 272 275 280 295 294 279 277 278 277 255 248 255 258 267 271 272 273 271 273 275 266 251 269 276 281 277 265 215 196 211 224 233 237 239 241 242 244
272 261 241 265 280 271 273 278 279 283 285 265 248 245 249 244 234 251 266 270 278 275 260 269 276 282 278 265 264 239 233 223 226 230 232 232 231 244
289 286 293 212 260 263 269 278 285 292 285 276 267 261 254 251 242 245 257 267 273 274 276 267 273 272 272 277 274 272 268 263 246 238 226 220 219 235
289 296 317 303 277 266 262 276 280 278 278 278 274 273 274 273 268 264 260 265 271 277 283 278 273 275 276 275 275 274 269 269 272 263 251 207 213 225
293 312 296 268 260 252 243 249 254 263 276 278 280 282 282 286 284 273 263 260 263 263 262 262 265 266 264 270 274 276 279 278 271 266 258 246 240 227
283 280 253 245 250 263 254 243 255 274 279 279 283 285 288 283 273 277 279 274 269 265 258 260 266 272 268 267 268 270 271 271 272 267 264 258 248 240
298 272 273 280 282 287 287 282 275 264 266 276 281 284 282 281 285 283 279 274 270 273 278 268 260 264 270 273 266 266 271 272 270 266 259 263 258 249
279 279 293 299 302 302 296 292 286 281 280 280 281 282 284 282 283 282 280 279 278 276 281 284 281 272 268 262 260 269 272 273 276 264 257 254 255 247
266 285 294 298 302 304 305 302 299 300 294 287 290 290 288 286 285 284 285 283 281 277 273 276 276 270 272 273 255 249 278 284 281 264 255 256 257 251
280 291 295 299 301 305 308 306 303 304 300 293 289 288 287 287 287 287 286 289 286 283 279 270 267 270 274 283 287 277 266 280 279 274 271 264 256 156
301 303 304 304 304 305 305 304 303 301 303 298 295 293 290 287 286 286 288 292 287 285 285 286 293 281 274 275 270 269 269 262 296 293 285 261 247 239
306 308 311 308 303 305 304 302 303 305 304 298 300 294 289 286 285 286 289 285 280 282 286 289 283 272 268 267 270 274 278 261 209 5 7 337 295 273
305 303 302 303 310 312 307 307 306 305 306 305 301 297 292 288 285 286 286 284 284 285 287 286 282 274 270 268 271 272 270 261 235 202 107 90 106 100